COSMOS 2119

Satellite information

Favourite Embed

Satellite Type and Status

PAYLOADIN ORBIT

Key statistics

Satellite COSMOS 2119 at a glance.

Uptime

12729

Days in orbit

Revolutions

≈ 12.7

Per day

Orbit

LEO

Low Earth Orbit

Inclination

82.6

Latest

Satellite identification and parameters

Extended collection of information and parameters for COSMOS 2119.

Object identification

Identified? True

Debris? False

Object name: COSMOS 2119

International designator: 1990-114F

Object number (NORAD): 21033

Object ID (CCSDS): 21033

Country: COMMONWEALTH OF INDEPENDENT STATES (CIS)

Current information (Y/N): Y

RCS size: LARGE

Orbital parameters

Period: 113.711 minutes

Inclination: 82.5721 deg

SMA: 7774.917 km

Apoapsis: 1408.48 km

Periapsis: 1385.083 km

RAAN: 323.7493 deg

Eccentricy: 0.0015046

Argument of periapsis: 141.4191 deg

Mean anomaly: 229.2031 deg

Mean motion: 12.66365747 rev/day

Mean motion (dot): 0.00000013 rev/day2

B* drag term: 0.0000091951 1/REarth

Two-line elements (TLE)

Creation date: Oct. 27, 2025, 2:46 p.m.

Reference frame: TEME

Reference center: EARTH

Epoch: Oct. 27, 2025, 7:12 a.m. UTC

TLE line 0: 0 COSMOS 2119

TLE line 1: 1 21033U 90114F 25300.30022647 .00000013 00000-0 91951-5 0 9992

TLE line 2: 2 21033 82.5721 323.7493 0015046 141.4191 229.2031 12.66365747610557

Live tracking on map

Real-time ground track for satellite COSMOS 2119.

In-orbit conjunctions

A list of the most updated potential collisions computed for object COSMOS 2119.

Target Orbit TCA Probability of collision Miss distance Type
CZ-4C DEB LEO 2024-10-30 16:12:32 0.0004987809 692.0 (m) DEBRIS

Associated space launch

Second generation store-dump military communications satellite

COSMOS 2119 was lifted into orbit during the mission ‘Tsiklon-3 | Strela-3 55 to 60’, on board a Tsiklon-3 space rocket.

The launch took place on Dec. 22, 1990, 7:28 a.m. from 32/2.

For more information about the launch, click the button.

Launch to space Tsiklon-3 | Strela-3 55 to 60
Tsiklon-3 | Strela-3 55 to 60

Agency: N/A

Status: Launch Successful

Launch date: Dec. 22, 1990, 7:28 a.m. UTC

Rocket: Tsiklon-3

Launch pad: 32/2

Location: Plesetsk Cosmodrome, Russian Federation

...

Latest news about this satellite

There are no fresh news available about this satellite. Check back as we update our databases every day.


Newsletter sign-up

Weekly statistics, charts and insights to help you stay on top of the space industry.